Hourly Data Report for October 03, 2017

All times are specified in Local Standard Time (LST). Add 1 hour to adjust for Daylight Saving Time where and when it is observed.

OAKPOINT MARINE
MANITOBA

50°29'58.044" N
98°02'12.030" W
249.60 m
504K0NM
71144
WOJ

Download Data

Hourly Data (October 2017)
Hourly Data Report for October 3, 2017
Temp Definition
°C
Dew Point Temp Definition
°C
Rel Hum Definition
%
Wind Dir Definition
10's deg

Wind Spd Definition
km/h
Visibility Definition
km
Stn Press Definition
kPa
Hmdx Definition


Wind Chill Definition


Weather Definition


TIME
00:00 11.3 5.3 66 25 19   98.24     LegendNANA
01:00 10.8 4.7 66 25 12   98.18     LegendNANA
02:00 9.1 6.9 86 17 14   98.27     LegendNANA
03:00 10.6 5.3 70 23 16   98.25     LegendNANA
04:00 10.9 4.7 65 21 14   98.34     LegendNANA
05:00 10.8 5.9 72 22 19   98.37     LegendNANA
06:00 10.5 6.5 76 23 13   98.42     LegendNANA
07:00 6.3 2.9 79 32 7   98.48     LegendNANA
08:00 8.8 5.4 79 25 6   98.53     LegendNANA
09:00 9.2 5.8 79 19 13   98.58     LegendNANA
10:00
11:00
12:00 9.1 6.0 81 21 19   98.72     LegendNANA
13:00 9.5 5.4 75 19 16   98.76     LegendNANA
14:00 10.3 5.0 70 18 7   98.79     LegendNANA
15:00 12.2 4.5 59 19 10   98.76     LegendNANA
16:00 12.8 4.8 58 23 9   98.81     LegendNANA
17:00 11.8 4.1 59 23 8   98.85     LegendNANA
18:00 12.0 5.4 64 25 17   98.90     LegendNANA
19:00 11.7 4.9 63 26 23   98.93     LegendNANA
20:00 11.3 5.5 67 27 23   98.95     LegendNANA
21:00 10.9 4.8 66 27 26   98.95     LegendNANA
22:00 10.3 4.9 69 27 26   98.96     LegendNANA
23:00 9.6 5.5 75 26 22   98.95     LegendNANA

Notes on Data Quality.

Legend

  • E = Estimated
  • M = Missing
  • NA = Not Available
  • ‡ = Partner data that is not subject to review by the National Climate Archives
Date modified: